Weather in Hsinchu

Taiwan     24°48′18″N   120°57′29″E
temp.,
°C
wind,
m/s
gust,
m/s
humid.,
%
clouds,
%
prec.,
mm/h
press.,
hPa
HPBL,
m
18 january, mon
mon1823:00+11ne8127336 0.0 1026859
02:00+11ne7117323 0.0 1025711
05:00+11ne6107214 0.0 1024657
08:00+12ne6106956 0.0 1024703
11:00+15nne7957100 0.0 1024778
14:00+17nne7952100 0.0 1022794
17:00+15ne7115873 0.0 1022691
20:00+13ne6106587 0.0 1023455
19 january, tue
tue1923:00+13ne586557 0.0 1023353
02:00+12ene356631 0.0 1022200
05:00+12ene366696 0.0 1022221
08:00+14ene346181 0.0 1023210
11:00+20nne34470 0.0 1023621
14:00+21nne45440 0.0 1021774
17:00+19ne47550 0.0 1021355
20:00+17ene24620 0.0 1022184
20 january, wed
wed2023:00+16e126224 0.0 102244
02:00+16ese116112 0.0 102025
05:00+16sse11610 0.0 101923
08:00+17s11560 0.0 102142
11:00+21nnw22430 0.0 1021355
14:00+23nw33400 0.0 1018499
17:00+21wnw12610 0.0 1018197
20:00+19s11720 0.0 101946
21 january, thu
thu2123:00+18ese11694 0.0 101923
02:00+18e116414 0.0 101825
05:00+18ese016517 0.0 101723
08:00+19e126132 0.0 101837
11:00+21nne015392 0.0 101740
14:00+23nnw236083 0.0 1015273
17:00+23n226953 0.0 101580
20:00+22ene127177 0.0 101533
22 january, fri
fri2223:00+21s0171100 0.0 101526
02:00+20nw0181100 0.0 101466
05:00+20ne368271 0.0 1013220
08:00+21ne487382 0.0 1014355
11:00+25nne686141 0.0 1014633
14:00+25nne8116534 0.0 1012735
17:00+21nne7117973 0.1 1012665
20:00+20nne7118378 0.4 1013639